Αρχική σελίδα
METAR-TAF:

METAR-TAF

Αεροδρόμια :

Colby, Κάνσας, Ηνωμένες Πολιτείες Αμερικής

γεωγραφικό πλάτος: 39-25-39N, γεωγραφικό μήκος: 101-02-48W, υψόμετρο: 971 μ

Παρών καιρός

Η αναφορά έγινε 21 λεπτά πριν, στις 15:35 UTC
Άνεμος 9 kt από Α/NA
Θερμοκρασία 0°C
Υγρασία 86%
Πίεση 1029 hPa
Ορατότητα: 16.1 χλμ
Αρκετά νέφη σε ύψος 11000 πόδια

METAR: KCBK 181535Z AUTO 11009KT 10SM BKN110 00/M02 A3040 RMK AO2

Χρόνος: 10:56 (15:56 UTC)


TAF: λείπει

Μετεωρολογικές αναφορές και προγνώσεις για περισσότερα από 4000 αεροδρόμια (δελτία METAR και TAF).

Οι διαθέσιμοι σταθμοί απεικονίζονται στο χάρτη με κίτρινες και κόκκινες κουκκίδες.

Μετακινήστε το ποντίκι πάνω από τις κουκκίδες για να δείτε το όνομα του σταθμού.

Στη συνέχεια, κάντε κλικ για να δείτε τις μετεωρολογικές αναφορές και τις προγνώσεις καιρού.

Για να αλλάξετε το χάρτη: κάντε κλικ στα πράσινα κουμπιά με τον μαύρο σταυρό για να ζουμάρετε, στο πράσινο κουμπί με την παύλα για να αφαιρέσετε το ζουμ ή στα πράσινα βέλη για να αντιπαραβάλλετε χάρτες.


METAR-TAF: